[[{"header":{"parameterUnit":"m.s-1","parameterCategory":1,"la1":30.2991,"la2":30.254,"lo1":-89.0895,"lo2":-89.0444,"dy":0.0017,"dx":0.0017,"nx":28,"ny":28,"refTime":"2023-08-03T09:00:00:Z","depth":0,"parameterNumber":2,"parameterNumberName":"U-component_of_WINDS"},"data":[0,0,0,0,0,0,0,0,0,0,0,0,0,0,0,0,0,0,0,0,0,0,0,0,0,0,0,0,0,0,0,0,0,0,0,0,0,0,0,0,0,0,0,0,0,0,0,0,0,0,0,0,0,0,0,0,0,0,4.8452,4.8452,0,4.8498,4.8498,4.8499,4.84,4.8397,4.8394,4.8391,4.844,4.8444,4.8448,0,0,0,0,0,0,0,0,0,0,0,0,0,4.8277,4.8281,4.8452,4.8452,4.8453,4.8498,4.8498,4.8499,4.8401,4.8397,4.8393,4.839,4.8438,4.8443,4.8448,0,0,0,0,0,0,0,0,0,0,0,0,0,4.8341,4.8282,4.8451,4.8409,4.8406,4.8498,4.8498,4.8499,4.8402,4.8397,4.8392,4.8388,4.8436,4.8443,4.8449,4.8584,0,0,4.8469,4.8471,0,0,0,0,0,0,0,0,4.8338,4.8348,4.8415,4.8412,4.8409,4.8438,4.8454,4.8528,4.8403,4.8403,4.8391,4.8385,4.8443,4.8449,4.8468,4.8587,4.8589,4.8469,4.8473,4.8476,4.8478,0,0,0,0,0,0,0,4.8333,4.8345,4.847,4.8416,4.8412,4.8387,4.8391,4.8468,4.845,4.8403,4.8396,4.8403,4.8441,4.8462,4.8468,4.8589,4.8469,4.8475,4.8479,4.8481,4.8816,4.8821,0,0,0,0,0,0,4.8334,4.8342,4.8468,4.8471,4.8361,4.8395,4.8399,4.8434,4.8448,4.8446,4.8407,4.8398,4.8453,4.8461,4.847,4.8625,4.8476,4.8482,4.8485,4.8811,4.8817,4.8823,0,0,0,0,0,0,4.8331,4.8347,4.8466,4.8405,4.8418,4.8403,4.8443,4.8437,4.8458,4.8451,4.8447,4.8432,4.845,4.8461,4.8555,4.8625,4.8485,4.849,4.8805,4.8813,4.882,4.8939,0,0,0,0,0,0,4.8326,4.8346,4.8398,4.8407,4.8422,4.8552,4.8447,4.8442,4.847,4.8458,4.8474,4.8472,4.8447,4.8546,4.8562,4.8632,4.8495,4.8799,4.8809,4.8818,4.8929,4.895,4.8968,0,0,0,0,0,4.832,4.8431,4.8401,4.8417,4.8486,4.8556,4.8565,4.8534,4.8476,4.8527,4.8522,4.8471,4.8616,4.8557,4.8573,4.8646,4.8794,4.8806,4.8817,4.892,4.8946,4.8967,0,0,0,0,0,0,4.8432,4.8431,4.8398,4.8515,4.8536,4.854,4.8603,4.8563,4.8602,4.859,4.8549,4.8554,4.8655,4.8661,4.8595,4.8775,4.8695,4.871,4.8768,4.8792,4.8811,4.8806,4.8501,0,0,0,0,0,4.847,4.8527,4.8523,4.8627,4.8639,4.862,4.8649,4.8623,4.8644,4.8652,4.8654,4.8677,4.8726,4.876,4.8806,4.893,4.893,4.8988,4.9008,4.9024,4.9036,4.9098,4.9122,4.886,4.886,4.886,0,0,4.8549,4.8556,4.8595,4.8649,4.8662,4.8721,4.8628,4.8695,4.8738,4.8663,4.875,4.8753,4.8775,4.8884,4.8932,4.8891,4.9109,4.9038,4.9051,4.9055,4.9112,4.9137,4.9159,4.8868,4.8867,4.8865,0,0,4.8722,4.8735,4.8819,4.8834,4.8855,4.8841,4.8862,4.8871,4.8869,4.8957,4.89,4.8951,4.9039,4.9055,4.9075,4.9252,4.9206,4.9268,4.9369,4.9429,4.945,4.9468,4.9527,4.9549,4.9282,4.9282,4.9282,0,4.8818,4.8904,4.8869,4.8938,4.8962,4.8896,4.898,4.8997,4.9033,4.905,4.9005,4.911,4.9121,4.923,4.9273,4.9293,4.9313,4.9265,4.945,4.9468,4.9484,4.9539,4.9562,4.9289,4.9288,4.9288,4.9287,0,4.9018,4.9079,4.9145,4.9178,4.921,4.9288,4.9262,4.9299,4.927,4.926,4.9349,4.9359,4.9403,4.9428,4.9402,4.9533,4.9506,4.9457,4.9374,4.9517,4.9568,4.9589,4.9299,4.9297,4.9295,4.9293,0,0,4.9263,4.9274,4.9298,4.931,4.9328,4.9373,4.9447,4.9489,4.9519,4.9546,4.9604,4.9679,4.9631,4.9654,4.9628,4.9682,4.9816,4.9625,4.9624,4.9656,4.9956,4.9991,5.0016,4.9786,4.979,4.9794,4.9953,0,4.9431,4.9555,4.9523,4.9646,4.9699,4.9636,4.9699,4.9716,4.9709,4.9753,4.9745,4.9797,4.9733,4.9745,4.9796,4.9789,4.9875,4.9777,4.9837,4.984,4.983,5.0044,5.0081,5.0231,4.9973,4.9977,4.9979,0,4.9643,4.9675,4.9802,4.9807,4.9828,4.9885,4.9919,4.9963,4.998,4.997,4.9995,4.9958,5.0028,4.9947,5.0042,4.9976,4.9999,5.0,5.0005,5.0006,4.9916,5.0047,5.0278,5.0299,5.0011,5.0009,5.0006,0,4.9803,4.9878,4.9962,4.9976,4.9985,5.0025,5.0031,5.0043,5.007,5.01,5.0116,5.0155,5.0176,5.0206,5.018,5.0125,5.0277,5.0196,5.0269,5.027,5.0302,5.0299,5.0536,5.0324,5.0323,5.0323,5.0322,0,4.9991,5.007,5.0033,5.0085,5.0171,5.0135,5.0221,5.022,5.0231,5.028,5.023,5.0277,5.0241,5.0285,5.0265,5.0344,5.0355,5.0348,5.0341,5.035,5.035,5.0362,5.0349,5.0329,5.0328,5.0326,5.0325,0,5.0183,5.0162,5.0249,5.0249,5.0251,5.0314,5.0314,5.0361,5.035,5.0412,5.0425,5.0407,5.0456,5.0433,5.0486,5.0472,5.0572,5.0553,5.0565,5.0559,5.0632,5.0624,5.0881,5.0911,5.0684,5.0686,5.0688,0,5.0302,5.0361,5.0367,5.0395,5.0404,5.0452,5.0477,5.0443,5.0472,5.0494,5.0538,5.0582,5.0615,5.0696,5.0687,5.0725,5.0705,5.0792,5.071,5.0716,5.07,5.0696,5.0699,5.0808,5.081,5.0812,5.0814,0,5.0515,5.0501,5.0539,5.0574,5.0605,5.0631,5.0652,5.0679,5.0645,5.068,5.0728,5.0754,5.0805,5.0848,5.0881,5.0886,5.0844,5.0841,5.0859,5.0867,5.0869,5.0864,5.0606,5.0834,5.0832,5.0831,5.0829,5.0829,5.0671,5.0719,5.0729,5.0772,5.0784,5.0805,5.0847,5.084,5.088,5.0917,5.0896,5.0951,5.0964,5.1004,5.1014,5.1056,5.1021,5.1049,5.1055,5.1062,5.1069,5.0866,5.1063,5.1062,5.1062,5.1061,5.1061,0,5.0878,5.088,5.0921,5.095,5.0984,5.0941,5.0962,5.0993,5.1042,5.1057,5.1089,5.1143,5.1184,5.1179,5.1215,5.125,5.1231,5.1261,5.1256,5.1257,5.1101,5.1079,5.1275,5.1275,5.1275,5.1275,5.1275,5.1275,5.0989,5.1065,5.1052,5.1133,5.1136,5.1188,5.1203,5.1221,5.1232,5.1293,5.1327,5.1322,5.1328,5.1365,5.14,5.1397,5.1411,5.1446,5.1436,5.129,5.1268,5.1248,5.1227,5.1451,5.1451,5.1588,5.1589,5.159]},{"header":{"parameterUnit":"m.s-1","parameterCategory":1,"la1":30.2991,"la2":30.254,"lo1":-89.0895,"lo2":-89.0444,"dy":0.0017,"dx":0.0017,"nx":28,"ny":28,"refTime":"2023-08-03T09:00:00:Z","depth":0,"parameterNumber":3,"parameterNumberName":"V-component_of_WINDS"},"data":[0,0,0,0,0,0,0,0,0,0,0,0,0,0,0,0,0,0,0,0,0,0,0,0,0,0,0,0,0,0,0,0,0,0,0,0,0,0,0,0,0,0,0,0,0,0,0,0,0,0,0,0,0,0,0,0,0,0,3.7764,3.7766,0,3.7919,3.792,3.7922,3.7931,3.7929,3.7928,3.7926,3.808,3.8086,3.8092,0,0,0,0,0,0,0,0,0,0,0,0,0,3.7471,3.7476,3.7764,3.7766,3.7768,3.7918,3.7921,3.7923,3.7931,3.7929,3.7927,3.7925,3.8078,3.8085,3.8092,0,0,0,0,0,0,0,0,0,0,0,0,0,3.7609,3.7478,3.7763,3.779,3.7794,3.7918,3.7921,3.7923,3.7932,3.7929,3.7927,3.7924,3.8076,3.8085,3.8093,3.8199,0,0,3.8119,3.8123,0,0,0,0,0,0,0,0,3.7601,3.762,3.7784,3.7789,3.7793,3.7903,3.7874,3.8016,3.7933,3.7879,3.7926,3.7923,3.8023,3.8036,3.8071,3.8207,3.8213,3.812,3.8125,3.8129,3.8132,0,0,0,0,0,0,0,3.7592,3.7613,3.7825,3.7787,3.7792,3.7793,3.781,3.7901,3.7964,3.7884,3.7885,3.7903,3.8025,3.8062,3.8074,3.8215,3.812,3.8128,3.8133,3.8136,3.8444,3.8447,0,0,0,0,0,0,3.7577,3.7605,3.782,3.783,3.7689,3.78,3.7819,3.787,3.7963,3.7975,3.7905,3.7903,3.8049,3.8064,3.808,3.8209,3.8129,3.8137,3.8142,3.8441,3.8445,3.8448,0,0,0,0,0,0,3.7571,3.7596,3.7814,3.7718,3.7745,3.7808,3.7866,3.7875,3.7912,3.798,3.799,3.7932,3.8047,3.8068,3.8169,3.8215,3.8141,3.8149,3.8438,3.8442,3.8446,3.8469,0,0,0,0,0,0,3.7563,3.7594,3.7636,3.7719,3.7751,3.7902,3.7869,3.788,3.7928,3.7926,3.8008,3.8019,3.8047,3.8157,3.8178,3.8225,3.8156,3.8434,3.844,3.8445,3.8465,3.8474,3.8482,0,0,0,0,0,3.7552,3.7636,3.7639,3.7664,3.7805,3.7905,3.7923,3.7955,3.7931,3.7973,3.8016,3.8016,3.8206,3.8167,3.8191,3.8242,3.8431,3.8438,3.8444,3.8461,3.8472,3.8482,0,0,0,0,0,0,3.7557,3.7647,3.7651,3.7765,3.7827,3.7906,3.7961,3.7966,3.8036,3.8032,3.8067,3.8085,3.8186,3.8224,3.8178,3.8348,3.8316,3.8328,3.832,3.8331,3.834,3.8328,3.8163,0,0,0,0,0,3.7571,3.7646,3.7721,3.7814,3.7845,3.7897,3.7942,3.7962,3.8027,3.8053,3.8104,3.8166,3.824,3.8288,3.8359,3.847,3.8487,3.8517,3.8525,3.8532,3.8542,3.8601,3.8615,3.847,3.847,3.847,0,0,3.7601,3.766,3.7705,3.7816,3.7867,3.7942,3.7919,3.8,3.8056,3.8065,3.8164,3.8203,3.8275,3.8382,3.8431,3.8416,3.8585,3.8541,3.8546,3.8552,3.861,3.8623,3.8635,3.8475,3.8474,3.8473,0,0,3.7694,3.7747,3.783,3.7881,3.7958,3.7992,3.8012,3.8091,3.8117,3.8218,3.8226,3.8291,3.8418,3.8469,3.8511,3.8622,3.8623,3.8644,3.8689,3.8746,3.8758,3.8768,3.8806,3.8819,3.8654,3.8654,3.8654,0,3.7721,3.7837,3.7871,3.7952,3.7999,3.8012,3.8095,3.8142,3.8239,3.8271,3.8253,3.8412,3.8461,3.8579,3.8606,3.864,3.8662,3.8635,3.8754,3.8764,3.8774,3.8811,3.8825,3.8656,3.8655,3.8655,3.8655,0,3.7866,3.7945,3.8002,3.8096,3.815,3.8231,3.8276,3.8327,3.8341,3.8376,3.8477,3.8537,3.862,3.8649,3.8664,3.8769,3.8757,3.8746,3.8714,3.8789,3.8824,3.8839,3.8658,3.8658,3.8657,3.8657,0,0,3.7966,3.8077,3.8097,3.8139,3.8225,3.8287,3.8367,3.845,3.8492,3.8558,3.8625,3.8732,3.8722,3.877,3.879,3.8841,3.8923,3.8824,3.8826,3.8839,3.904,3.9047,3.9063,3.8925,3.8928,3.893,3.9033,0,3.8067,3.8214,3.8246,3.8371,3.8444,3.8456,3.8527,3.8586,3.8621,3.8686,3.8724,3.8799,3.8781,3.881,3.8861,3.8902,3.8964,3.8895,3.8986,3.8989,3.8967,3.9081,3.9089,3.9184,3.9048,3.905,3.9052,0,3.8206,3.8275,3.8408,3.8483,3.8515,3.8578,3.8655,3.8718,3.8785,3.8807,3.886,3.8874,3.8957,3.8921,3.9035,3.8987,3.9026,3.9052,3.9056,3.9065,3.9024,3.9092,3.9215,3.9229,3.9074,3.9072,3.907,0,3.8264,3.8391,3.8486,3.8522,3.8612,3.8656,3.8695,3.8759,3.8806,3.8874,3.8904,3.898,3.9021,3.9078,3.9112,3.9083,3.9222,3.9189,3.924,3.924,3.9268,3.9266,3.9398,3.9295,3.9295,3.9295,3.9295,0,3.8373,3.8453,3.8513,3.8572,3.8661,3.8697,3.8784,3.8823,3.888,3.8945,3.896,3.902,3.9062,3.9127,3.9154,3.9243,3.9261,3.928,3.9286,3.9278,3.9275,3.9303,3.9297,3.9299,3.9298,3.9297,3.9297,0,3.8453,3.8497,3.8601,3.8678,3.8699,3.8762,3.8827,3.8883,3.8918,3.9,3.9021,3.9075,3.9153,3.9193,3.929,3.9307,3.9407,3.9409,3.9385,3.9387,3.9435,3.943,3.9589,3.9611,3.9495,3.9496,3.9497,0,3.8519,3.8581,3.8665,3.871,3.8751,3.8823,3.8872,3.8909,3.8958,3.9038,3.9084,3.9163,3.9228,3.9351,3.9398,3.9472,3.9476,3.9526,3.9487,3.9476,3.9475,3.947,3.9476,3.9533,3.9534,3.9535,3.9536,0,3.8632,3.865,3.872,3.8797,3.8855,3.8917,3.8978,3.9014,3.9061,3.9115,3.9196,3.9246,3.9345,3.9422,3.9499,3.9538,3.9544,3.9548,3.9564,3.9556,3.9538,3.9547,3.9403,3.9544,3.9543,3.9543,3.9542,3.9542,3.8706,3.8761,3.8829,3.8906,3.8956,3.9013,3.9069,3.9111,3.9179,3.9264,3.9281,3.9365,3.9429,3.9533,3.9574,3.9639,3.9628,3.9651,3.9657,3.9661,3.9663,3.9529,3.9654,3.9653,3.9653,3.9653,3.9653,0,3.8818,3.8862,3.8933,3.9018,3.9078,3.9081,3.9148,3.9198,3.9272,3.9332,3.9396,3.9487,3.9562,3.9615,3.969,3.9732,3.9737,3.9751,3.9747,3.9756,3.9669,3.9648,3.9746,3.9746,3.9746,3.9746,3.9746,3.9746,3.8884,3.8977,3.9003,3.912,3.9163,3.9247,3.9285,3.9337,3.9385,3.9486,3.9549,3.9584,3.964,3.972,3.9788,3.9801,3.9828,3.9841,3.9854,3.9772,3.9762,3.9753,3.9733,3.9847,3.9847,3.9936,3.9936,3.9937]}]]